Date,TemperatureHighF,TemperatureAvgF,TemperatureLowF,DewpointHighF,DewpointAvgF,DewpointLowF,HumidityHigh,HumidityAvg,HumidityLow,PressureMaxIn,PressureMinIn,WindSpeedMaxMPH,WindSpeedAvgMPH,GustSpeedMaxMPH,PrecipitationSumIn
2013-3-1,63.0,47.8,31.0,32.0,23.3,14.0,80,45,16,30.49,30.18,2,1,7,0.00
2013-3-2,64.0,44.5,31.0,35.0,26.3,18.0,79,56,18,30.46,30.32,1,0,5,0.00
2013-3-3,55.0,42.6,34.0,34.0,27.7,21.0,78,58,30,30.32,30.11,1,1,3,0.00
2013-3-4,50.0,40.9,32.0,41.0,34.9,26.0,91,80,67,30.22,30.08,1,0,3,0.00
2013-3-5,57.0,40.8,31.0,42.0,31.5,24.0,92,72,36,30.22,30.15,1,1,4,0.00
2013-3-6,49.0,36.4,28.0,38.0,30.5,13.0,96,81,25,30.18,30.08,1,1,3,0.00
2013-3-7,40.0,35.2,29.0,37.0,34.4,29.0,100,97,88,30.08,29.90,1,1,4,0.00
2013-3-8,32.0,29.6,28.0,32.0,29.3,27.0,100,99,92,30.04,29.80,1,0,3,0.00
2013-3-9,36.0,32.3,30.0,35.0,32.1,30.0,100,99,96,30.18,29.80,1,0,2,0.00
2013-3-13,67.0,49.3,32.0,40.0,34.8,30.0,97,64,25,30.39,30.32,1,1,3,0.00
2013-3-14,72.0,56.7,40.0,44.0,37.8,29.0,88,56,22,30.39,30.32,1,1,4,0.00
2013-3-15,70.0,50.1,39.0,46.0,36.7,28.0,93,67,24,30.32,30.18,1,0,3,0.00
2013-3-16,65.0,49.1,38.0,41.0,30.1,14.0,79,53,15,30.18,30.08,1,1,4,0.00
2013-3-17,64.0,46.1,35.0,40.0,32.5,27.0,84,61,30,30.15,30.08,1,1,3,0.00
2013-3-18,62.0,44.9,32.0,43.0,32.2,22.0,82,62,41,30.18,30.08,1,0,3,0.00
2013-3-19,59.0,47.1,36.0,43.0,32.6,26.0,86,60,36,0.00,40.00,1,1,5,0.00
2013-3-20,58.0,46.4,38.0,40.0,34.4,25.0,88,67,28,0.00,40.00,1,0,3,0.00
2013-3-21,59.0,46.0,36.0,42.0,35.6,28.0,87,69,40,0.00,40.00,1,0,4,0.00
2013-3-22,59.0,46.3,31.0,39.0,29.5,13.0,90,58,18,0.00,40.00,2,1,6,0.00
2013-3-23,60.0,43.6,31.0,33.0,24.8,13.0,79,53,18,0.00,40.00,1,0,3,0.00
2013-3-24,62.0,44.4,32.0,35.0,28.2,23.0,87,58,26,0.00,40.00,1,0,3,0.00
2013-3-25,64.0,46.3,34.0,37.0,27.7,19.0,76,53,18,0.00,40.00,1,0,4,0.00
2013-3-26,59.0,44.4,34.0,31.0,26.8,19.0,75,54,23,0.00,40.00,1,0,4,0.00
2013-3-27,57.0,45.1,36.0,41.0,33.7,26.0,92,66,38,0.00,40.00,1,0,4,0.00
2013-3-28,61.0,45.2,33.0,40.0,31.6,28.0,94,63,30,0.00,40.00,1,0,4,0.00
2013-3-29,65.0,48.1,34.0,37.0,33.1,31.0,89,61,31,0.00,40.00,1,0,5,0.00
2013-3-30,61.0,49.6,40.0,45.0,34.5,-99.9,90,60,31,0.00,40.00,1,0,4,0.00
2013-3-31,52.0,42.9,34.0,44.0,36.9,28.0,98,80,57,0.00,40.00,1,0,4,0.00